This is the latest recevied weather packets stored in our database for station/object N3SBK. If no packets are shown the sender has not sent any weather packets the latest 10 day(s).
| Time | Temp. | Humidity | Pressure | Rain* | Wind** | Luminosity | Snow |
|---|---|---|---|---|---|---|---|
| 1787783813 | 23.89° C | 65% | 1007.4 hPa | 0 mm | - | 25 W/m² | - |
| 1787783508 | 23.89° C | 65% | 1007.5 hPa | 0 mm | - | 26 W/m² | - |
| 1787783203 | 23.89° C | 65% | 1007.7 hPa | 0 mm | - | 30 W/m² | - |
| 1787782898 | 24.44° C | 65% | 1007.5 hPa | 0 mm | - | 36 W/m² | - |
| 1787782597 | 24.44° C | 64% | 1007.7 hPa | 0 mm | - | 40 W/m² | - |
| 1787782292 | 24.44° C | 63% | 1007.8 hPa | 0 mm | - | 42 W/m² | - |
| 1787781988 | 25° C | 66% | 1007.8 hPa | 0 mm | - | 48 W/m² | - |
| 1787781683 | 25° C | 64% | 1007.5 hPa | 0 mm | - | 53 W/m² | - |
| 1787781380 | 25° C | 60% | 1007.7 hPa | 0 mm | - | 77 W/m² | - |
| 1787781080 | 25.56° C | 62% | 1007.8 hPa | 0 mm | - | 83 W/m² | - |
| 1787780779 | 26.11° C | 57% | 1007.7 hPa | 0 mm | - | 89 W/m² | - |
| 1787780479 | 26.11° C | 52% | 1007.7 hPa | 0 mm | - | 85 W/m² | - |
| 1787780175 | 26.67° C | 52% | 1007.5 hPa | 0 mm | - | 82 W/m² | - |
| 1787779870 | 26.67° C | 55% | 1007.7 hPa | 0 mm | - | 125 W/m² | - |
| 1787779570 | 26.67° C | 56% | 1008 hPa | 0 mm | - | 221 W/m² | - |
| 1787779270 | 27.78° C | 51% | 1007.5 hPa | 0 mm | - | 72 W/m² | - |
| 1787778964 | 28.33° C | 49% | 1007.8 hPa | 0 mm | - | 87 W/m² | - |
| 1787778660 | 28.89° C | 48% | 1007.5 hPa | 0 mm | - | 283 W/m² | - |
| 1787778356 | 28.89° C | 50% | 1007.7 hPa | 0 mm | - | 298 W/m² | - |
| 1787778052 | 28.33° C | 48% | 1007.8 hPa | 0 mm | - | 349 W/m² | - |
| 1787777751 | 28.33° C | 48% | 1007.9 hPa | 0 mm | - | 327 W/m² | - |
| 1787777448 | 29.44° C | 46% | 1007.9 hPa | 0 mm | - | 338 W/m² | - |
| 1787777148 | 28.89° C | 49% | 1007.8 hPa | 0 mm | - | 344 W/m² | - |
| 1787776846 | 28.89° C | 48% | 1007.9 hPa | 0 mm | - | 361 W/m² | - |
| 1787776545 | 29.44° C | 51% | 1007.8 hPa | 0 mm | - | 372 W/m² | - |
* Rain latest hour (hover to see other rain measurements)
** Current wind speed in m/s (hover to see current wind gust speed)